Time,TemperatureF,DewpointF,PressureIn,WindDirection,WindDirectionDegrees,WindSpeedMPH,WindSpeedGustMPH,Humidity,HourlyPrecipIn,Conditions,Clouds,dailyrainin,SoftwareType,DateUTC
2013-04-15 00:00:00,49.5,45.0,29.82,NE,44,2.0,10.0,85,0.00,,,0.00,weatherlink.com 1.10,2013-04-15 07:00:00,
2013-04-15 00:45:00,49.0,45.0,29.83,NE,37,2.0,7.0,85,0.00,,,0.00,weatherlink.com 1.10,2013-04-15 07:45:00,
2013-04-15 01:15:00,48.6,44.0,29.83,NW,326,3.0,8.0,85,0.00,,,0.00,weatherlink.com 1.10,2013-04-15 08:15:00,
2013-04-15 01:45:00,47.1,44.0,29.83,NNW,333,4.0,6.0,87,0.00,,,0.00,weatherlink.com 1.10,2013-04-15 08:45:00,
2013-04-15 02:00:00,46.7,43.0,29.82,ENE,58,2.0,6.0,87,0.00,,,0.00,weatherlink.com 1.10,2013-04-15 09:00:00,
2013-04-15 02:15:00,46.2,43.0,29.83,NE,56,2.0,4.0,87,0.00,,,0.00,weatherlink.com 1.10,2013-04-15 09:15:00,
2013-04-15 02:30:00,45.8,42.0,29.83,ENE,64,1.0,3.0,87,0.00,,,0.00,weatherlink.com 1.10,2013-04-15 09:30:00,
2013-04-15 02:45:00,45.2,42.0,29.83,South,191,0.0,2.0,88,0.00,,,0.00,weatherlink.com 1.10,2013-04-15 09:45:00,
2013-04-15 03:00:00,45.6,42.0,29.83,SE,126,0.0,3.0,87,0.00,,,0.00,weatherlink.com 1.10,2013-04-15 10:00:00,
2013-04-15 03:15:00,45.9,42.0,29.83,NNE,14,0.0,6.0,86,0.00,,,0.00,weatherlink.com 1.10,2013-04-15 10:15:00,
2013-04-15 03:30:00,45.8,42.0,29.83,SE,140,0.0,4.0,86,0.00,,,0.00,weatherlink.com 1.10,2013-04-15 10:30:00,
2013-04-15 03:45:00,45.6,42.0,29.83,NE,37,0.0,5.0,86,0.00,,,0.00,weatherlink.com 1.10,2013-04-15 10:45:00,
2013-04-15 04:00:00,45.4,42.0,29.83,NE,51,0.0,4.0,86,0.00,,,0.00,weatherlink.com 1.10,2013-04-15 11:00:00,
2013-04-15 04:15:00,45.2,41.0,29.83,NE,56,3.0,6.0,86,0.00,,,0.00,weatherlink.com 1.10,2013-04-15 11:15:00,
2013-04-15 04:30:00,45.3,41.0,29.83,SSW,203,0.0,7.0,86,0.00,,,0.00,weatherlink.com 1.10,2013-04-15 11:30:00,
2013-04-15 04:45:00,45.2,41.0,29.82,North,11,2.0,8.0,85,0.00,,,0.00,weatherlink.com 1.10,2013-04-15 11:45:00,
2013-04-15 05:00:00,44.7,41.0,29.83,NW,305,0.0,2.0,85,0.00,,,0.00,weatherlink.com 1.10,2013-04-15 12:00:00,
2013-04-15 05:16:00,43.9,40.0,29.83,SE,129,0.0,1.0,87,0.00,,,0.00,weatherlink.com 1.10,2013-04-15 12:16:00,
2013-04-15 05:31:00,43.0,40.0,29.84,SSE,148,0.0,0.0,88,0.00,,,0.00,weatherlink.com 1.10,2013-04-15 12:31:00,
2013-04-15 05:46:00,42.7,40.0,29.84,WSW,239,0.0,1.0,89,0.00,,,0.00,weatherlink.com 1.10,2013-04-15 12:46:00,
2013-04-15 06:16:00,40.7,38.0,29.84,WSW,240,0.0,0.0,89,0.00,,,0.00,weatherlink.com 1.10,2013-04-15 13:16:00,
2013-04-15 07:01:00,41.2,39.0,29.86,SSW,195,0.0,0.0,92,0.00,,,0.00,weatherlink.com 1.10,2013-04-15 14:01:00,
2013-04-15 08:31:00,48.1,39.0,29.87,NE,51,3.0,7.0,71,0.00,,,0.00,weatherlink.com 1.10,2013-04-15 15:31:00,
2013-04-15 09:01:00,49.3,38.0,29.87,NNE,28,7.0,11.0,65,0.00,,,0.00,weatherlink.com 1.10,2013-04-15 16:01:00,
2013-04-15 09:16:00,49.8,38.0,29.86,North,349,5.0,9.0,63,0.00,,,0.00,weatherlink.com 1.10,2013-04-15 16:16:00,
2013-04-15 09:31:00,50.3,37.0,29.87,NNE,15,7.0,14.0,61,0.00,,,0.00,weatherlink.com 1.10,2013-04-15 16:31:00,
2013-04-15 09:46:00,51.1,38.0,29.87,NNE,13,4.0,9.0,61,0.00,,,0.00,weatherlink.com 1.10,2013-04-15 16:46:00,
2013-04-15 10:01:00,51.8,38.0,29.87,East,89,3.0,11.0,59,0.00,,,0.00,weatherlink.com 1.10,2013-04-15 17:01:00,
2013-04-15 10:16:00,52.5,38.0,29.87,East,96,3.0,10.0,59,0.00,,,0.00,weatherlink.com 1.10,2013-04-15 17:16:00,
2013-04-15 10:31:00,53.2,38.0,29.87,NNW,339,7.0,11.0,57,0.00,,,0.00,weatherlink.com 1.10,2013-04-15 17:31:00,
2013-04-15 10:46:00,54.5,38.0,29.87,NNE,23,6.0,12.0,54,0.00,,,0.00,weatherlink.com 1.10,2013-04-15 17:46:00,
2013-04-15 11:32:00,57.6,37.0,29.87,ENE,74,5.0,11.0,47,0.00,,,0.00,weatherlink.com 1.10,2013-04-15 18:32:00,
2013-04-15 11:47:00,57.8,37.0,29.87,NNE,18,5.0,13.0,46,0.00,,,0.00,weatherlink.com 1.10,2013-04-15 18:47:00,
2013-04-15 12:02:00,59.7,38.0,29.87,NNE,22,3.0,7.0,44,0.00,,,0.00,weatherlink.com 1.10,2013-04-15 19:02:00,
2013-04-15 12:17:00,59.3,38.0,29.87,NE,39,4.0,10.0,46,0.00,,,0.00,weatherlink.com 1.10,2013-04-15 19:17:00,
2013-04-15 12:32:00,59.9,39.0,29.87,NNE,32,2.0,11.0,46,0.00,,,0.00,weatherlink.com 1.10,2013-04-15 19:32:00,
2013-04-15 13:02:00,60.1,39.0,29.86,North,354,4.0,10.0,45,0.00,,,0.00,weatherlink.com 1.10,2013-04-15 20:02:00,
2013-04-15 13:17:00,59.5,39.0,29.86,NE,38,10.0,16.0,46,0.00,,,0.00,weatherlink.com 1.10,2013-04-15 20:17:00,
2013-04-15 13:32:00,59.2,38.0,29.86,NW,312,3.0,17.0,46,0.00,,,0.00,weatherlink.com 1.10,2013-04-15 20:32:00,
2013-04-15 13:47:00,59.0,39.0,29.86,NNE,32,10.0,13.0,48,0.00,,,0.00,weatherlink.com 1.10,2013-04-15 20:47:00,
2013-04-15 14:02:00,58.7,39.0,29.85,NE,39,4.0,18.0,49,0.00,,,0.00,weatherlink.com 1.10,2013-04-15 21:02:00,
2013-04-15 14:17:00,59.1,39.0,29.85,NNW,333,4.0,14.0,48,0.00,,,0.00,weatherlink.com 1.10,2013-04-15 21:17:00,
2013-04-15 14:32:00,59.1,39.0,29.86,NNE,22,5.0,18.0,48,0.00,,,0.00,weatherlink.com 1.10,2013-04-15 21:32:00,
2013-04-15 14:47:00,58.5,39.0,29.85,North,11,11.0,14.0,48,0.00,,,0.00,weatherlink.com 1.10,2013-04-15 21:47:00,
2013-04-15 15:02:00,59.0,39.0,29.85,NNE,24,4.0,14.0,47,0.00,,,0.00,weatherlink.com 1.10,2013-04-15 22:02:00,
2013-04-15 15:17:00,58.4,37.0,29.85,NNW,331,16.0,18.0,46,0.00,,,0.00,weatherlink.com 1.10,2013-04-15 22:17:00,
2013-04-15 15:32:00,57.9,38.0,29.85,East,82,8.0,20.0,47,0.00,,,0.00,weatherlink.com 1.10,2013-04-15 22:32:00,
2013-04-15 15:47:00,56.9,37.0,29.84,NE,49,7.0,16.0,47,0.00,,,0.00,weatherlink.com 1.10,2013-04-15 22:47:00,
2013-04-15 16:02:00,57.6,36.0,29.84,NNW,334,7.0,16.0,45,0.00,,,0.00,weatherlink.com 1.10,2013-04-15 23:02:00,
2013-04-15 16:17:00,57.3,35.0,29.83,NNE,30,5.0,17.0,44,0.00,,,0.00,weatherlink.com 1.10,2013-04-15 23:17:00,
2013-04-15 16:32:00,56.2,35.0,29.83,NNE,27,7.0,18.0,46,0.00,,,0.00,weatherlink.com 1.10,2013-04-15 23:32:00,
2013-04-15 16:47:00,55.9,36.0,29.83,NE,45,8.0,17.0,47,0.00,,,0.00,weatherlink.com 1.10,2013-04-15 23:47:00,
2013-04-15 17:02:00,55.7,36.0,29.83,SE,136,5.0,14.0,48,0.00,,,0.00,weatherlink.com 1.10,2013-04-16 00:02:00,
2013-04-15 17:17:00,55.0,36.0,29.83,NE,40,7.0,18.0,50,0.00,,,0.00,weatherlink.com 1.10,2013-04-16 00:17:00,
2013-04-15 17:32:00,54.3,37.0,29.83,East,86,4.0,18.0,52,0.00,,,0.00,weatherlink.com 1.10,2013-04-16 00:32:00,
2013-04-15 17:47:00,53.4,37.0,29.83,NNW,333,5.0,20.0,54,0.00,,,0.00,weatherlink.com 1.10,2013-04-16 00:47:00,
2013-04-15 18:02:00,53.1,37.0,29.83,NNE,20,10.0,14.0,54,0.00,,,0.00,weatherlink.com 1.10,2013-04-16 01:02:00,
2013-04-15 18:17:00,52.4,37.0,29.83,NNW,328,3.0,18.0,56,0.00,,,0.00,weatherlink.com 1.10,2013-04-16 01:17:00,
2013-04-15 18:32:00,51.7,37.0,29.83,NW,316,4.0,14.0,57,0.00,,,0.00,weatherlink.com 1.10,2013-04-16 01:32:00,
2013-04-15 18:47:00,50.8,37.0,29.84,NE,42,7.0,12.0,60,0.00,,,0.00,weatherlink.com 1.10,2013-04-16 01:47:00,
2013-04-15 19:02:00,50.0,37.0,29.84,NNW,347,3.0,14.0,62,0.00,,,0.00,weatherlink.com 1.10,2013-04-16 02:02:00,
2013-04-15 19:17:00,49.5,37.0,29.85,ENE,63,5.0,11.0,63,0.00,,,0.00,weatherlink.com 1.10,2013-04-16 02:17:00,
2013-04-15 19:32:00,49.0,37.0,29.84,NNW,327,5.0,14.0,64,0.00,,,0.00,weatherlink.com 1.10,2013-04-16 02:32:00,
2013-04-15 19:47:00,48.6,37.0,29.85,North,3,4.0,12.0,65,0.00,,,0.00,weatherlink.com 1.10,2013-04-16 02:47:00,
2013-04-15 20:02:00,48.3,37.0,29.85,NNW,332,6.0,12.0,65,0.00,,,0.00,weatherlink.com 1.10,2013-04-16 03:02:00,
2013-04-15 20:17:00,48.0,37.0,29.86,NW,325,3.0,9.0,65,0.00,,,0.00,weatherlink.com 1.10,2013-04-16 03:17:00,
2013-04-15 20:32:00,47.8,37.0,29.86,NNE,28,3.0,11.0,66,0.00,,,0.00,weatherlink.com 1.10,2013-04-16 03:32:00,
2013-04-15 20:47:00,47.9,37.0,29.87,North,359,2.0,10.0,65,0.00,,,0.00,weatherlink.com 1.10,2013-04-16 03:47:00,
2013-04-15 21:02:00,47.9,37.0,29.88,NNW,331,0.0,8.0,65,0.00,,,0.00,weatherlink.com 1.10,2013-04-16 04:02:00,
2013-04-15 21:17:00,48.0,36.0,29.88,North,354,5.0,8.0,64,0.00,,,0.00,weatherlink.com 1.10,2013-04-16 04:17:00,
2013-04-15 21:32:00,47.8,36.0,29.89,NNE,13,4.0,8.0,65,0.00,,,0.00,weatherlink.com 1.10,2013-04-16 04:32:00,
2013-04-15 21:47:00,47.8,36.0,29.89,NNW,346,1.0,10.0,63,0.00,,,0.00,weatherlink.com 1.10,2013-04-16 04:47:00,
2013-04-15 22:02:00,48.2,36.0,29.90,NW,311,2.0,9.0,62,0.00,,,0.00,weatherlink.com 1.10,2013-04-16 05:02:00,
2013-04-15 22:17:00,48.4,35.0,29.91,NNE,27,2.0,10.0,61,0.00,,,0.00,weatherlink.com 1.10,2013-04-16 05:17:00,
2013-04-15 22:32:00,48.3,35.0,29.91,East,83,4.0,11.0,60,0.00,,,0.00,weatherlink.com 1.10,2013-04-16 05:32:00,
2013-04-15 22:47:00,48.4,34.0,29.90,NNE,29,10.0,11.0,59,0.00,,,0.00,weatherlink.com 1.10,2013-04-16 05:47:00,
2013-04-15 23:02:00,48.3,34.0,29.91,NW,304,6.0,10.0,59,0.00,,,0.00,weatherlink.com 1.10,2013-04-16 06:02:00,
2013-04-15 23:17:00,48.0,34.0,29.91,North,11,3.0,10.0,59,0.00,,,0.00,weatherlink.com 1.10,2013-04-16 06:17:00,
2013-04-15 23:32:00,47.6,34.0,29.92,ESE,118,2.0,7.0,59,0.00,,,0.00,weatherlink.com 1.10,2013-04-16 06:32:00,
2013-04-15 23:47:00,47.3,34.0,29.93,NNW,328,1.0,9.0,60,0.00,,,0.00,weatherlink.com 1.10,2013-04-16 06:47:00,